Weather History for KCGZ - May, 2013

Change the Weather History Date:

Friday, May 3, 2013

  Actual Average Record
Temperature  
Mean Temperature 76 °F -  
Max Temperature 87 °F 86 °F 98 °F (2000)
Min Temperature 66 °F 54 °F 48 °F (1998)
Cooling Degree Days 12    
Growing Degree Days 26 (Base 50)    
Moisture  
Dew Point 22 °F    
Average Humidity 13    
Maximum Humidity 18    
Minimum Humidity 10    
Precipitation  
Precipitation 0.00 in - - ()
Sea Level Pressure  
Sea Level Pressure 29.94 in    
Wind  
Wind Speed 18 mph (NE)    
Max Wind Speed 28 mph    
Max Gust Speed 36 mph    
Visibility 10 miles    
Events      
Averages and records for this station are not official NWS values.
T = Trace of Precipitation, MM = Missing Value Source: NWS Daily Summary

Daily Weather History Graph

Daily Weather History Graph

Search for Another Location

Airport or City:

Trip Planner

Search our weather history database for the weather conditions in past years. The results will help you decide how hot, cold, wet, or windy it might be!

Date:

Astronomy

May. 03, 2013 Rise Set
Actual Time 5:37 AM MST 7:10 PM MST
Civil Twilight 5:10 AM MST 7:37 PM MST
Nautical Twilight 4:39 AM MST 8:09 PM MST
Astronomical Twilight 4:06 AM MST 8:42 PM MST
Moon 1:44 AM MST (5/3) 1:27 PM MST (5/3)
Length of Visible Light 14h 26m
Length of Day
13h 33m
Waning Crescent, 36% of the Moon is Illuminated
May 3
Waning Crescent
May 9
New
May 17
First Quarter
May 24
Full
May 31
Last Quarter

Hourly Weather History & Observations

Time (MST) Temp. Dew Point Humidity Pressure Visibility Wind Dir Wind Speed Gust Speed Precip Events Conditions
12:15 AM 75.2 °F 21.2 °F 13% 30.03 in 10.0 mi ENE 21.9 mph - N/A   Clear
12:35 AM 75.2 °F 21.2 °F 13% 30.04 in 10.0 mi ENE 15.0 mph 21.9 mph N/A   Clear
12:55 AM 75.2 °F 21.2 °F 13% 30.04 in 10.0 mi ENE 17.3 mph - N/A   Clear
1:15 AM 75.2 °F 19.4 °F 12% 30.04 in 10.0 mi ENE 18.4 mph 23.0 mph N/A   Clear
1:35 AM 73.4 °F 21.2 °F 14% 30.04 in 10.0 mi ENE 18.4 mph - N/A   Clear
1:55 AM 73.4 °F 21.2 °F 14% 30.04 in 10.0 mi ENE 20.7 mph 25.3 mph N/A   Clear
2:15 AM 73.4 °F 21.2 °F 14% 30.05 in 10.0 mi ENE 20.7 mph 26.5 mph N/A   Clear
2:35 AM 71.6 °F 21.2 °F 15% 30.05 in 10.0 mi ENE 20.7 mph 25.3 mph N/A   Clear
2:55 AM 71.6 °F 23.0 °F 16% 30.05 in 10.0 mi ENE 19.6 mph - N/A   Clear
3:15 AM 69.8 °F 23.0 °F 17% 30.05 in 10.0 mi ENE 19.6 mph 25.3 mph N/A   Clear
3:35 AM 69.8 °F 23.0 °F 17% 30.04 in 10.0 mi ENE 23.0 mph 29.9 mph N/A   Clear
3:55 AM 69.8 °F 21.2 °F 16% 30.05 in 10.0 mi ENE 23.0 mph 29.9 mph N/A   Clear
4:15 AM 69.8 °F 21.2 °F 16% 30.05 in 10.0 mi ENE 24.2 mph 29.9 mph N/A   Clear
4:35 AM 68.0 °F 21.2 °F 17% 30.05 in 10.0 mi ENE 23.0 mph 31.1 mph N/A   Clear
4:55 AM 66.2 °F 21.2 °F 18% 30.04 in 10.0 mi ENE 23.0 mph 31.1 mph N/A   Clear
5:15 AM 66.2 °F 21.2 °F 18% 30.05 in 10.0 mi ENE 21.9 mph 31.1 mph N/A   Clear
5:35 AM 66.2 °F 21.2 °F 18% 30.05 in 9.0 mi ENE 24.2 mph 34.5 mph N/A   Clear
5:55 AM 66.2 °F 21.2 °F 18% 30.05 in 9.0 mi ENE 21.9 mph 31.1 mph N/A   Clear
6:15 AM 66.2 °F 21.2 °F 18% 30.05 in 7.0 mi ENE 26.5 mph 34.5 mph N/A   Clear
6:35 AM 66.2 °F 21.2 °F 18% 30.06 in 9.0 mi ENE 25.3 mph 32.2 mph N/A   Clear
6:55 AM 66.2 °F 21.2 °F 18% 30.07 in 10.0 mi ENE 25.3 mph 33.4 mph N/A   Clear
7:15 AM 66.2 °F 21.2 °F 18% 30.07 in 9.0 mi ENE 25.3 mph 31.1 mph N/A   Clear
7:35 AM 68.0 °F 21.2 °F 17% 30.06 in 6.0 mi ENE 25.3 mph 34.5 mph N/A   Clear
7:55 AM 69.8 °F 21.2 °F 16% 30.05 in 6.0 mi ENE 27.6 mph 34.5 mph N/A   Clear
8:15 AM 69.8 °F 21.2 °F 16% 30.05 in 7.0 mi ENE 26.5 mph 35.7 mph N/A   Clear
8:35 AM 71.6 °F 21.2 °F 15% 30.05 in 7.0 mi ENE 25.3 mph 33.4 mph N/A   Clear
8:55 AM 71.6 °F 21.2 °F 15% 30.05 in 7.0 mi ENE 26.5 mph 32.2 mph N/A   Clear
9:15 AM 73.4 °F 21.2 °F 14% 30.05 in 7.0 mi ENE 23.0 mph 32.2 mph N/A   Clear
9:35 AM 73.4 °F 21.2 °F 14% 30.04 in 9.0 mi ENE 27.6 mph 32.2 mph N/A   Clear
9:55 AM 75.2 °F 21.2 °F 13% 30.04 in 10.0 mi ENE 27.6 mph 33.4 mph N/A   Clear
10:15 AM 77.0 °F 23.0 °F 13% 30.03 in 10.0 mi ENE 25.3 mph 31.1 mph N/A   Clear
10:35 AM 78.8 °F 21.2 °F 12% 30.02 in 9.0 mi ENE 24.2 mph 33.4 mph N/A   Clear
10:55 AM 78.8 °F 23.0 °F 13% 30.02 in 10.0 mi ENE 23.0 mph 32.2 mph N/A   Clear
11:15 AM 80.6 °F 21.2 °F 11% 30.01 in 10.0 mi ENE 23.0 mph 29.9 mph N/A   Clear
11:35 AM 80.6 °F 23.0 °F 12% 30.00 in 10.0 mi ENE 21.9 mph 29.9 mph N/A   Clear
11:55 AM 82.4 °F 23.0 °F 11% 29.98 in 10.0 mi ENE 21.9 mph 31.1 mph N/A   Clear
12:15 PM 82.4 °F 23.0 °F 11% 29.97 in 10.0 mi ENE 19.6 mph 29.9 mph N/A   Clear
12:35 PM 84.2 °F 23.0 °F 11% 29.96 in 10.0 mi ENE 18.4 mph 27.6 mph N/A   Clear
12:55 PM 84.2 °F 23.0 °F 11% 29.95 in 10.0 mi ENE 19.6 mph 25.3 mph N/A   Clear
1:15 PM 86.0 °F 24.8 °F 11% 29.93 in 10.0 mi ENE 17.3 mph 24.2 mph N/A   Clear
1:35 PM 84.2 °F 24.8 °F 11% 29.92 in 10.0 mi ENE 15.0 mph 21.9 mph N/A   Clear
1:55 PM 87.8 °F 24.8 °F 10% 29.91 in 10.0 mi ENE 18.4 mph 24.2 mph N/A   Clear
2:15 PM 87.8 °F 24.8 °F 10% 29.90 in 10.0 mi ENE 12.7 mph 23.0 mph N/A   Clear
2:35 PM 87.8 °F 24.8 °F 10% 29.89 in 10.0 mi NNE 10.4 mph 19.6 mph N/A   Clear
2:55 PM 87.8 °F 24.8 °F 10% 29.87 in 10.0 mi East 12.7 mph 18.4 mph N/A   Clear
3:15 PM 87.8 °F 24.8 °F 10% 29.86 in 10.0 mi ENE 11.5 mph 18.4 mph N/A   Clear
3:35 PM 87.8 °F 24.8 °F 10% 29.85 in 10.0 mi SSW 4.6 mph - N/A   Clear
3:55 PM 87.8 °F 24.8 °F 10% 29.84 in 10.0 mi Calm Calm - N/A   Clear
4:15 PM 87.8 °F 26.6 °F 11% 29.83 in 10.0 mi NNE 4.6 mph - N/A   Clear
4:35 PM 87.8 °F 26.6 °F 11% 29.83 in 10.0 mi South 6.9 mph - N/A   Clear
4:55 PM 87.8 °F 26.6 °F 11% 29.83 in 10.0 mi SSE 4.6 mph - N/A   Clear
5:15 PM 87.8 °F 26.6 °F 11% 29.82 in 10.0 mi West 5.8 mph - N/A   Clear
5:35 PM 87.8 °F 24.8 °F 10% 29.82 in 10.0 mi NNW 5.8 mph - N/A   Clear
5:55 PM 87.8 °F 24.8 °F 10% 29.82 in 10.0 mi Calm Calm - N/A   Clear
6:15 PM 87.8 °F 24.8 °F 10% 29.81 in 10.0 mi Calm Calm - N/A   Clear
6:35 PM 87.8 °F 24.8 °F 10% 29.81 in 10.0 mi Calm Calm - N/A   Clear
6:55 PM 84.2 °F 24.8 °F 11% 29.81 in 10.0 mi West 3.5 mph - N/A   Clear
7:15 PM 82.4 °F 21.2 °F 10% 29.81 in 10.0 mi NNW 6.9 mph - N/A   Clear
7:35 PM 82.4 °F 21.2 °F 10% 29.81 in 10.0 mi NNW 6.9 mph - N/A   Clear
7:55 PM 80.6 °F 19.4 °F 10% 29.81 in 10.0 mi NNW 6.9 mph - N/A   Clear
8:15 PM 80.6 °F 19.4 °F 10% 29.82 in 10.0 mi NNW 8.1 mph - N/A   Clear
8:35 PM 78.8 °F 19.4 °F 11% 29.82 in 10.0 mi NNW 8.1 mph - N/A   Clear
8:55 PM 75.2 °F 17.6 °F 11% 29.82 in 10.0 mi North 8.1 mph - N/A   Clear
9:15 PM 73.4 °F 15.8 °F 11% 29.82 in 10.0 mi North 6.9 mph - N/A   Clear
9:35 PM 73.4 °F 17.6 °F 12% 29.82 in 10.0 mi North 8.1 mph - N/A   Clear
9:55 PM 73.4 °F 15.8 °F 11% 29.82 in 10.0 mi North 8.1 mph - N/A   Clear
10:15 PM 73.4 °F 17.6 °F 12% 29.82 in 10.0 mi North 8.1 mph - N/A   Clear
10:35 PM 73.4 °F 17.6 °F 12% 29.82 in 10.0 mi North 8.1 mph - N/A   Clear
10:55 PM 71.6 °F 17.6 °F 13% 29.82 in 10.0 mi NNW 5.8 mph - N/A   Clear
11:15 PM 73.4 °F 17.6 °F 12% 29.81 in 10.0 mi North 6.9 mph - N/A   Clear
11:35 PM 71.6 °F 17.6 °F 13% 29.81 in 10.0 mi North 8.1 mph - N/A   Clear
11:55 PM 69.8 °F 17.6 °F 14% 29.81 in 10.0 mi NNE 6.9 mph - N/A   Clear